Location: Sperry Observatory
(40.6664°N, 74.3236°W)
Time: 15:57:04
(UTC-04:00)

Amateur Radio Satellites - All Passes

Search period start: 26 August 2016 15:27
Search period end: 27 August 2016 15:27
Location: Sperry Observatory, 40.6664°N, 74.3236°W

Satellite Date Start Highest point End Downlink Frequencies (MHz)
Time Altitude Azimuth
SWISSCUBE 26 Aug 15:30:52 15:35:39 90° 82° (E) 15:40:25 437.505
BEESAT 26 Aug 15:48:13 15:52:57 67° 286° (WNW) 15:57:40 436.000
AO-7 26 Aug 16:00:15 16:08:36 72° 254° (WSW) 16:16:59 29.400- 29.500
MOZHAYETS 4 26 Aug 16:14:26 16:18:37 34° 97° (E) 16:22:46
KKS-1 26 Aug 16:19:15 16:23:08 28° 96° (E) 16:26:59 437.445
BRITE-PL 26 Aug 16:28:15 16:30:29 13° 59° (ENE) 16:32:47 437.365/2234.400
ITUPSAT 1 26 Aug 16:35:25 16:39:15 24° 294° (WNW) 16:43:04 437.325
HORYU 2 26 Aug 16:39:03 16:43:11 39° 71° (ENE) 16:47:20 437.375
ITAMSAT 1 26 Aug 16:39:26 16:41:44 13° 270° (W) 16:44:01 435.822/435.867
ISS 26 Aug 16:40:55 16:43:58 37° 223° (SW) 16:47:01 145.825
STARS 26 Aug 16:58:50 17:02:56 37° 98° (E) 17:06:59 437.465
Cosmos 2491 26 Aug 17:10:42 17:16:26 20° 78° (ENE) 17:22:10 435.465 / 435.565
SWISSCUBE 26 Aug 17:11:50 17:12:41 10° 301° (WNW) 17:13:32 437.505
Cubesat XI-IV 26 Aug 17:15:49 17:19:39 21° 63° (ENE) 17:23:30 437.490
CUTE-I 26 Aug 17:27:31 17:31:51 26° 65° (ENE) 17:36:12 437.470
YUBILEINY 26 Aug 17:27:36 17:36:08 52° 76° (ENE) 17:44:33 435.215
CUBESAT XI-V 26 Aug 17:30:47 17:34:51 28° 96° (E) 17:38:54 437.345
NOAA 15 26 Aug 17:32:44 17:37:29 36° 68° (ENE) 17:42:17 137.62
LilacSat-2 26 Aug 17:43:51 17:47:05 26° 70° (ENE) 17:50:18 437.200
GOMX 1 26 Aug 17:46:36 17:51:08 34° 69° (ENE) 17:55:56 467.674
MOZHAYETS 4 26 Aug 17:52:00 17:55:35 23° 293° (WNW) 17:59:10
NOAA 18 26 Aug 17:55:12 18:00:23 43° 69° (ENE) 18:05:35 137.9125
BEESAT 3 26 Aug 17:55:22 17:57:42 15° 43° (NE) 18:00:03 437.485
KKS-1 26 Aug 17:55:53 17:59:35 26° 292° (WNW) 18:03:17 437.445
AO-7 26 Aug 17:59:28 18:02:41 12° 272° (W) 18:05:56 29.400- 29.500
DOVE 4 26 Aug 18:00:44 18:04:45 23° 65° (ENE) 18:08:50 437.250
BRITE-PL 26 Aug 18:03:22 18:08:07 79° 258° (WSW) 18:13:21 437.365/2234.400
HORYU 2 26 Aug 18:16:40 18:19:52 19° 266° (W) 18:23:05 437.375
Cosmos 2504 26 Aug 18:32:09 18:39:02 44° 75° (ENE) 18:45:47 435.465 / 435.565
STARS 26 Aug 18:35:48 18:39:02 20° 294° (WNW) 18:42:14 437.465
CINEMA 3 26 Aug 18:51:27 18:55:07 21° 66° (ENE) 18:58:47 145.822/145.860
Cubesat XI-IV 26 Aug 18:54:05 18:59:18 54° 260° (W) 19:04:33 437.490
Cosmos 2491 26 Aug 19:03:23 19:12:07 82° 278° (W) 19:20:56 435.465 / 435.565
CUTE-I 26 Aug 19:06:40 19:11:40 41° 262° (W) 19:16:42 437.470
CUBESAT XI-V 26 Aug 19:08:07 19:12:09 29° 291° (WNW) 19:16:11 437.345
BEESAT 2 26 Aug 19:11:06 19:14:55 40° 53° (NE) 19:18:42 435.950
NOAA 15 26 Aug 19:12:52 19:17:18 28° 265° (W) 19:21:47 137.62
LilacSat-2 26 Aug 19:18:23 19:21:20 21° 266° (W) 19:24:18 437.200
CUBEBUG 2 26 Aug 19:20:40 19:21:56 11° 62° (ENE) 19:23:11 437.445
GOMX 1 26 Aug 19:24:53 19:29:13 29° 267° (W) 19:33:47 467.674
YUBILEINY 26 Aug 19:24:59 19:32:31 34° 276° (W) 19:40:01 435.215
HO-68 26 Aug 19:25:22 19:32:14 51° 67° (ENE) 19:39:08 435.675
BEESAT 3 26 Aug 19:31:50 19:35:45 60° 242° (WSW) 19:39:38 437.485
NOAA 18 26 Aug 19:36:39 19:41:10 25° 265° (W) 19:45:43 137.9125
DOVE 4 26 Aug 19:37:11 19:42:04 45° 262° (W) 19:47:10 437.250
AIST 1 26 Aug 19:37:13 19:38:49 12° 68° (ENE) 19:40:24
SEEDS 26 Aug 19:38:49 19:42:20 28° 70° (ENE) 19:45:53 437.485
STRAND 1 26 Aug 19:56:49 20:01:45 47° 99° (E) 20:06:39 437.568
CANX-2 26 Aug 19:57:01 20:01:12 76° 76° (ENE) 20:05:24 2200.000
CUTE 1.7 + AOD 2 26 Aug 20:03:22 20:07:33 77° 76° (ENE) 20:11:46 437.475
AAUSAT CUBESAT 2 26 Aug 20:13:16 20:17:01 36° 72° (ENE) 20:20:48 437.432
COMPASS 1 26 Aug 20:19:46 20:23:48 55° 74° (ENE) 20:27:51 437.405
Cosmos 2504 26 Aug 20:25:58 20:32:07 31° 274° (W) 20:38:11 435.465 / 435.565
CINEMA 3 26 Aug 20:27:04 20:31:53 47° 261° (W) 20:36:43 145.822/145.860
Oscar 11 26 Aug 20:44:56 20:48:48 33° 71° (ENE) 20:52:41 145.826/435.025
BEESAT 2 26 Aug 20:49:44 20:52:26 17° 249° (WSW) 20:55:06 435.950
FUNcube-1 26 Aug 20:50:32 20:54:37 36° 71° (ENE) 20:58:38 145.935
CUBEBUG 2 26 Aug 20:53:11 20:57:54 82° 259° (WSW) 21:02:32 437.445
UWE-3 26 Aug 20:53:31 20:58:05 68° 75° (ENE) 21:02:33 435.000/436.395/437.385
PRISM 26 Aug 20:58:16 21:01:28 21° 95° (E) 21:04:40 437.425
Cosmos 2491 26 Aug 21:05:14 21:10:26 17° 300° (WNW) 21:15:40 435.465 / 435.565
ZACube-1 26 Aug 21:10:55 21:15:22 67° 75° (ENE) 21:19:44 437.345
PCSat 26 Aug 21:11:03 21:16:20 49° 56° (NE) 21:21:34 145.827
AIST 2 26 Aug 21:12:14 21:16:04 34° 51° (NE) 21:19:53 435.215
AIST 1 26 Aug 21:12:30 21:16:52 61° 265° (W) 21:21:10
HO-68 26 Aug 21:13:57 21:20:09 31° 264° (W) 21:26:23 435.675
SEEDS 26 Aug 21:14:41 21:18:01 23° 265° (W) 21:21:22 437.485
STRAND 1 26 Aug 21:36:49 21:40:35 21° 296° (WNW) 21:44:21 437.568
GONETS M04 26 Aug 21:44:06 21:49:17 16° 60° (ENE) 21:54:26
AAUSAT CUBESAT 2 26 Aug 21:49:53 21:52:37 17° 267° (W) 21:55:22 437.432
COMPASS 1 26 Aug 21:58:24 21:59:42 11° 270° (W) 22:01:01 437.405
DELFI C3 26 Aug 22:01:45 22:05:41 78° 259° (WSW) 22:09:38 145.870
ANTELSAT 26 Aug 22:04:31 22:05:41 11° 90° (E) 22:06:52 437.575/2403.000
HUMSAT D 26 Aug 22:07:38 22:11:43 56° 74° (ENE) 22:15:47 437.325/437.525
Oscar 11 26 Aug 22:21:46 22:25:00 20° 266° (W) 22:28:14 145.826/435.025
AUBIESAT-1 26 Aug 22:25:46 22:30:01 37° 65° (ENE) 22:34:17 437.475
FUNcube-1 26 Aug 22:27:40 22:30:56 20° 266° (W) 22:34:10 145.935
M-CUBED/EXP-1 PRIME 26 Aug 22:30:07 22:34:38 51° 67° (ENE) 22:39:13 437.505
ESTCUBE 1 26 Aug 22:31:18 22:34:22 19° 65° (ENE) 22:37:28 437.505/2401.250
PRISM 26 Aug 22:33:06 22:36:49 31° 290° (WNW) 22:40:29 437.425
UWE-3 26 Aug 22:33:27 22:34:56 11° 270° (W) 22:36:23 435.000/436.395/437.385
TIGRISAT 26 Aug 22:33:52 22:37:17 23° 95° (E) 22:40:41 435.000
AISAT 26 Aug 22:44:51 22:47:22 15° 63° (ENE) 22:49:53 437.250
ZACube-1 26 Aug 22:50:48 22:52:02 11° 270° (W) 22:53:16 437.345
AIST 2 26 Aug 22:51:02 22:54:22 23° 248° (WSW) 22:57:41 435.215
PCSat 26 Aug 22:55:11 22:59:22 23° 253° (WSW) 23:03:31 145.827
UKube-1 26 Aug 23:01:22 23:02:26 11° 61° (ENE) 23:03:30 .
UNISAT 6 26 Aug 23:01:33 23:05:45 51° 100° (E) 23:09:53 437.425
50 SAT 26 Aug 23:11:30 23:14:13 21° 69° (ENE) 23:16:58 437.505
VELOX 1 26 Aug 23:30:21 23:34:31 41° 71° (ENE) 23:38:43 145.980
O/OREOS (USA 219) 26 Aug 23:31:48 23:35:49 29° 60° (ENE) 23:39:49 437.305
Cosmos 2499 26 Aug 23:32:38 23:39:34 55° 78° (ENE) 23:46:32 435.465 / 435.565
SO-50 26 Aug 23:33:26 23:37:45 33° 114° (ESE) 23:42:04 436.795
CUBEBUG 1 26 Aug 23:35:05 23:39:22 56° 74° (ENE) 23:43:43 437.445
ANTELSAT 26 Aug 23:38:35 23:42:50 60° 285° (WNW) 23:47:00 437.575/2403.000
GONETS M04 26 Aug 23:38:44 23:47:39 80° 82° (E) 23:56:30
HUMSAT D 26 Aug 23:46:17 23:47:40 11° 269° (W) 23:49:03 437.325/437.525
QB50P1 26 Aug 23:48:36 23:51:59 23° 95° (E) 23:55:21 145.935-145.965
DX 1 26 Aug 23:51:13 23:55:24 47° 72° (ENE) 23:59:37 434.975-435.025
SPROUT 26 Aug 23:57:55 00:01:57 40° 71° (ENE) 00:05:59 437.525
POPSAT HIP 1 26 Aug 23:58:16 00:01:58 29° 96° (E) 00:05:37 437.405
AUBIESAT-1 27 Aug 00:00:48 00:04:29 23° 261° (W) 00:08:13 437.475
RS-15 27 Aug 00:02:02 00:09:45 21° 98° (E) 00:17:40 29.354- 29.394
CUSAT 1 27 Aug 00:05:58 00:08:46 72° 281° (W) 00:12:12 437.405
M-CUBED/EXP-1 PRIME 27 Aug 00:06:12 00:09:20 18° 263° (W) 00:12:32 437.505
ESTCUBE 1 27 Aug 00:06:36 00:10:51 42° 261° (W) 00:15:09 437.505/2401.250
TIGRISAT 27 Aug 00:10:16 00:13:59 29° 291° (WNW) 00:17:39 435.000
AISAT 27 Aug 00:19:00 00:23:22 55° 260° (W) 00:27:46 437.250
TISAT 1 27 Aug 00:22:14 00:24:58 17° 65° (ENE) 00:27:42 437.305
JAS-2 27 Aug 00:22:25 00:28:38 36° 97° (E) 00:35:24 435.910
DUCHIFAT 1 27 Aug 00:26:55 00:31:04 56° 101° (E) 00:35:08 145.980
QB50P2 27 Aug 00:28:01 00:32:15 71° 102° (ESE) 00:36:26 145.880/145.840
POLYITAN 1 27 Aug 00:30:33 00:34:46 72° 101° (E) 00:38:57 437.675
UKube-1 27 Aug 00:33:32 00:37:51 74° 258° (WSW) 00:42:11 .
UNISAT 6 27 Aug 00:39:42 00:42:01 14° 296° (WNW) 00:44:20 437.425
NANOSAT C BR1 27 Aug 00:40:09 00:44:23 87° 98° (E) 00:48:35 145.865
50 SAT 27 Aug 00:44:50 00:47:42 22° 265° (W) 00:50:34 437.505
DANDE 27 Aug 00:53:36 00:56:10 63° 282° (WNW) 00:58:51 436.750
SWISSCUBE 27 Aug 01:02:54 01:04:27 11° 60° (ENE) 01:05:59 437.505
VELOX 1 27 Aug 01:08:07 01:11:09 18° 267° (W) 01:14:12 145.980
O/OREOS (USA 219) 27 Aug 01:11:13 01:15:09 28° 257° (WSW) 01:19:03 437.305
SO-50 27 Aug 01:13:49 01:18:12 33° 311° (NW) 01:22:34 436.795
CUBEBUG 1 27 Aug 01:13:59 01:16:00 13° 269° (W) 01:18:02 437.445
BEESAT 27 Aug 01:18:51 01:21:32 15° 62° (ENE) 01:24:15 436.000
QB50P1 27 Aug 01:24:06 01:27:44 28° 291° (WNW) 01:31:21 145.935-145.965
BUGSAT 1 27 Aug 01:26:21 01:30:29 71° 286° (WNW) 01:34:32 437.445
Cosmos 2499 27 Aug 01:26:46 01:32:08 24° 276° (W) 01:37:33 435.465 / 435.565
DX 1 27 Aug 01:29:17 01:31:50 15° 268° (W) 01:34:24 434.975-435.025
POPSAT HIP 1 27 Aug 01:34:15 01:37:36 23° 292° (WNW) 01:40:55 437.405
SPROUT 27 Aug 01:35:09 01:38:02 17° 267° (W) 01:40:55 437.525
GONETS M04 27 Aug 01:37:20 01:43:22 21° 281° (WNW) 01:49:25
PHONESAT 2.4 27 Aug 01:52:52 01:54:53 16° 151° (SSE) 01:56:53 2401.200-2431.200
TISAT 1 27 Aug 01:56:13 02:00:16 43° 261° (W) 02:04:20 437.305
Oscar 19 27 Aug 01:57:44 02:02:38 40° 98° (E) 02:07:30 437.125/150
ITUPSAT 1 27 Aug 02:03:34 02:07:59 40° 70° (ENE) 02:12:26 437.325
DUCHIFAT 1 27 Aug 02:04:19 02:06:15 13° 297° (WNW) 02:08:11 145.980
QB50P2 27 Aug 02:06:32 02:07:26 11° 298° (WNW) 02:08:21 145.880/145.840
JAS-2 27 Aug 02:07:20 02:13:40 45° 291° (WNW) 02:20:39 435.910
RS-15 27 Aug 02:08:45 02:20:16 86° 121° (ESE) 02:32:29 29.354- 29.394
POLYITAN 1 27 Aug 02:09:12 02:09:57 10° 298° (WNW) 02:10:43 437.675
SWISSCUBE 27 Aug 02:36:47 02:41:32 82° 256° (WSW) 02:46:19 437.505
BEESAT 27 Aug 02:54:07 02:58:49 61° 259° (WSW) 03:03:32 436.000
Gurwin Techsat 1B 27 Aug 03:00:29 03:05:48 73° 103° (ESE) 03:11:06 435.225
ITAMSAT 1 27 Aug 03:10:15 03:14:34 26° 95° (E) 03:18:51 435.822/435.867
MOZHAYETS 4 27 Aug 03:16:01 03:20:03 32° 69° (ENE) 03:24:05
KKS-1 27 Aug 03:17:02 03:20:46 26° 67° (ENE) 03:24:30 437.445
PHONESAT 2.4 27 Aug 03:27:55 03:30:53 59° 165° (SSE) 03:33:50 2401.200-2431.200
Oscar 19 27 Aug 03:37:32 03:41:43 25° 295° (WNW) 03:45:55 437.125/150
ITUPSAT 1 27 Aug 03:42:24 03:45:57 21° 266° (W) 03:49:33 437.325
STARS 27 Aug 03:55:03 03:59:00 32° 70° (ENE) 04:02:58 437.465
AO-7 27 Aug 04:02:30 04:10:11 40° 99° (E) 04:17:48 29.400- 29.500
RS-15 27 Aug 04:23:54 04:34:22 35° 326° (NNW) 04:45:18 29.354- 29.394
CUBESAT XI-V 27 Aug 04:33:56 04:37:45 27° 68° (ENE) 04:41:38 437.345
Gurwin Techsat 1B 27 Aug 04:42:07 04:45:08 15° 299° (WNW) 04:48:07 435.225
ITAMSAT 1 27 Aug 04:49:21 04:54:05 37° 291° (WNW) 04:58:49 435.822/435.867
KKS-1 27 Aug 04:53:20 04:57:13 29° 264° (W) 05:01:08 437.445
MOZHAYETS 4 27 Aug 04:53:31 04:57:13 24° 265° (W) 05:00:56
PHONESAT 2.4 27 Aug 05:04:12 05:07:12 88° 173° (S) 05:10:12 2401.200-2431.200
AO-85 27 Aug 05:11:27 05:16:10 33° 114° (ESE) 05:20:43 145.980
Cosmos 2491 27 Aug 05:14:14 05:22:46 50° 76° (ENE) 05:31:16 435.465 / 435.565
STARS 27 Aug 05:31:52 05:35:22 23° 265° (W) 05:38:55 437.465
NOAA 15 27 Aug 05:49:39 05:52:12 13° 90° (E) 05:54:45 137.62
GOMX 1 27 Aug 05:51:12 05:52:52 11° 86° (E) 05:54:31 467.674
AO-7 27 Aug 05:55:12 06:03:00 47° 297° (WNW) 06:10:46 29.400- 29.500
HORYU 2 27 Aug 06:06:14 06:10:41 81° 104° (ESE) 06:15:05 437.375
BRITE-PL 27 Aug 06:08:14 06:13:36 40° 96° (E) 06:18:49 437.365/2234.400
CUBESAT XI-V 27 Aug 06:11:02 06:15:02 29° 264° (W) 06:19:05 437.345
NOAA 18 27 Aug 06:18:31 06:22:10 18° 92° (E) 06:25:46 137.9125
YUBILEINY 27 Aug 06:27:34 06:36:11 61° 91° (E) 06:44:49 435.215
PHONESAT 2.4 27 Aug 06:40:36 06:43:27 40° 199° (SSW) 06:46:17 2401.200-2431.200
RS-15 27 Aug 06:43:19 06:52:08 22° 1° (N) 07:01:04 29.354- 29.394
LilacSat-2 27 Aug 06:51:05 06:54:39 39° 98° (E) 06:58:11 437.200
AO-85 27 Aug 06:51:45 06:56:37 36° 309° (NW) 07:01:14 145.980
Cosmos 2504 27 Aug 07:09:16 07:17:00 41° 88° (E) 07:24:15 435.465 / 435.565
Cubesat XI-IV 27 Aug 07:11:26 07:16:44 63° 102° (ESE) 07:21:59 437.490
Cosmos 2491 27 Aug 07:11:34 07:19:17 36° 275° (W) 07:27:00 435.465 / 435.565
STRAND 1 27 Aug 07:12:16 07:17:19 66° 73° (ENE) 07:22:23 437.568
CUTE-I 27 Aug 07:23:31 07:28:51 82° 104° (ESE) 07:34:10 437.470
GOMX 1 27 Aug 07:26:11 07:31:40 86° 285° (WNW) 07:36:51 467.674
NOAA 15 27 Aug 07:27:11 07:32:30 74° 286° (WNW) 07:37:47 137.62
DOVE 4 27 Aug 07:36:37 07:41:37 55° 99° (E) 07:46:18 437.250
CANX-2 27 Aug 07:43:55 07:45:59 13° 91° (E) 07:48:04 2200.000
HORYU 2 27 Aug 07:46:01 07:46:33 10° 300° (WNW) 07:47:05 437.375
BRITE-PL 27 Aug 07:46:58 07:51:50 30° 293° (WNW) 07:56:39 437.365/2234.400
PRISM 27 Aug 07:48:13 07:50:37 15° 64° (ENE) 07:53:02 437.425
CUTE 1.7 + AOD 2 27 Aug 07:50:07 07:52:15 14° 91° (E) 07:54:22 437.475
AO-7 27 Aug 07:52:40 07:53:41 10° 319° (NW) 07:54:42 29.400- 29.500
NOAA 18 27 Aug 07:57:49 08:03:12 59° 289° (WNW) 08:08:32 137.9125
SO-50 27 Aug 08:05:05 08:09:05 28° 47° (NE) 08:12:58 436.795
CINEMA 3 27 Aug 08:22:31 08:26:50 42° 98° (E) 08:30:57 145.822/145.860
YUBILEINY 27 Aug 08:26:01 08:33:29 30° 291° (WNW) 08:41:02 435.215
LilacSat-2 27 Aug 08:26:34 08:28:37 14° 294° (WNW) 08:30:38 437.200
HO-68 27 Aug 08:40:38 08:47:39 54° 101° (E) 08:54:36 435.675
CUBEBUG 2 27 Aug 08:45:29 08:48:35 20° 93° (E) 08:51:37 437.445
UWE-3 27 Aug 08:45:31 08:47:20 12° 90° (E) 08:49:08 435.000/436.395/437.385
Cubesat XI-IV 27 Aug 08:52:51 08:56:15 18° 299° (WNW) 08:59:41 437.490
STRAND 1 27 Aug 08:54:16 08:56:56 14° 269° (W) 08:59:36 437.568
CUSAT 1 27 Aug 08:56:32 08:59:12 13° 65° (ENE) 09:02:04 437.405
SEEDS 27 Aug 08:57:41 09:01:51 56° 101° (E) 09:05:59 437.485
RS-15 27 Aug 08:58:40 09:09:48 37° 35° (NE) 09:20:50 29.354- 29.394
ZACube-1 27 Aug 09:01:43 09:03:17 12° 90° (E) 09:04:51 437.345
Cosmos 2504 27 Aug 09:02:24 09:10:17 42° 285° (WNW) 09:17:44 435.465 / 435.565
ANTELSAT 27 Aug 09:03:16 09:04:52 12° 62° (ENE) 09:06:28 437.575/2403.000
CUTE-I 27 Aug 09:05:38 09:08:11 14° 301° (WNW) 09:10:44 437.470
GOMX 1 27 Aug 09:06:46 09:08:48 12° 301° (WNW) 09:10:48 467.674
DOVE 4 27 Aug 09:15:26 09:18:46 18° 297° (WNW) 09:21:59 437.250
CANX-2 27 Aug 09:18:01 09:22:07 50° 286° (WNW) 09:26:13 2200.000
ISS 27 Aug 09:19:55 09:23:11 77° 142° (SE) 09:26:29 145.825
PRISM 27 Aug 09:21:39 09:25:33 44° 261° (W) 09:29:30 437.425
BEESAT 3 27 Aug 09:22:32 09:25:36 22° 113° (ESE) 09:28:42 437.485
CUTE 1.7 + AOD 2 27 Aug 09:24:15 09:28:21 49° 287° (WNW) 09:32:27 437.475
AAUSAT CUBESAT 2 27 Aug 09:30:36 09:34:46 73° 103° (ESE) 09:38:56 437.432
TIGRISAT 27 Aug 09:32:11 09:35:43 22° 67° (ENE) 09:39:12 435.000
COMPASS 1 27 Aug 09:38:05 09:42:14 72° 284° (WNW) 09:46:25 437.405
AIST 1 27 Aug 09:40:57 09:45:16 79° 96° (E) 09:49:40
DELFI C3 27 Aug 09:41:00 09:43:03 14° 92° (E) 09:45:06 145.870
SO-50 27 Aug 09:45:26 09:49:36 35° 245° (WSW) 09:53:38 436.795
DANDE 27 Aug 09:48:40 09:49:28 10° 68° (ENE) 09:50:17 436.750
UNISAT 6 27 Aug 09:59:37 10:04:00 44° 72° (ENE) 10:08:19 437.425
CINEMA 3 27 Aug 10:00:33 10:03:36 18° 296° (WNW) 10:06:34 145.822/145.860
Oscar 11 27 Aug 10:07:49 10:12:08 73° 102° (ESE) 10:16:26 145.826/435.025
FUNcube-1 27 Aug 10:14:34 10:18:44 80° 101° (E) 10:22:51 145.935
UWE-3 27 Aug 10:20:03 10:24:07 50° 287° (WNW) 10:28:07 435.000/436.395/437.385
CUBEBUG 2 27 Aug 10:21:29 10:25:18 32° 290° (WNW) 10:29:00 437.445
HO-68 27 Aug 10:28:58 10:35:00 30° 299° (WNW) 10:40:59 435.675
SEEDS 27 Aug 10:35:07 10:37:03 13° 296° (WNW) 10:38:59 437.485
CUSAT 1 27 Aug 10:35:28 10:41:52 72° 80° (E) 10:49:34 437.405
ZACube-1 27 Aug 10:35:52 10:39:55 52° 286° (WNW) 10:43:56 437.345
ANTELSAT 27 Aug 10:36:21 10:40:59 75° 258° (WSW) 10:45:31 437.575/2403.000
JAS-2 27 Aug 10:39:45 10:40:58 11° 55° (NE) 10:42:12 435.910
BEESAT 2 27 Aug 10:39:45 10:43:42 85° 118° (ESE) 10:47:42 435.950
QB50P1 27 Aug 10:41:12 10:44:06 18° 66° (ENE) 10:47:00 145.935-145.965
GONETS M04 27 Aug 10:46:44 10:52:01 18° 77° (ENE) 10:57:19
POPSAT HIP 1 27 Aug 10:50:40 10:53:59 22° 67° (ENE) 10:57:18 437.405
ISS 27 Aug 10:57:27 10:59:59 20° 340° (NNW) 11:02:31 145.825
BEESAT 3 27 Aug 10:59:36 11:03:06 31° 309° (NW) 11:06:39 437.485
TIGRISAT 27 Aug 11:07:55 11:12:11 36° 263° (W) 11:16:23 435.000
AAUSAT CUBESAT 2 27 Aug 11:09:20 11:09:38 10° 298° (WNW) 11:09:57 437.432
RS-15 27 Aug 11:11:24 11:23:49 83° 241° (WSW) 11:35:57 29.354- 29.394
DELFI C3 27 Aug 11:14:18 11:18:06 44° 287° (WNW) 11:21:55 145.870
DUCHIFAT 1 27 Aug 11:18:15 11:22:12 39° 71° (ENE) 11:26:10 145.980
QB50P2 27 Aug 11:19:58 11:24:06 50° 73° (ENE) 11:28:15 145.880/145.840
POLYITAN 1 27 Aug 11:22:29 11:26:38 50° 73° (ENE) 11:30:47 437.675
HUMSAT D 27 Aug 11:26:37 11:30:42 71° 284° (WNW) 11:34:46 437.325/437.525
CUBEBUG 1 27 Aug 11:26:45 11:27:41 11° 89° (E) 11:28:37 437.445
DANDE 27 Aug 11:27:08 11:32:31 76° 81° (E) 11:39:35 436.750
NANOSAT C BR1 27 Aug 11:31:32 11:35:43 60° 74° (ENE) 11:39:56 145.865
UNISAT 6 27 Aug 11:37:48 11:40:53 18° 267° (W) 11:43:56 437.425
AUBIESAT-1 27 Aug 11:39:59 11:43:17 24° 99° (E) 11:46:23 437.475
M-CUBED/EXP-1 PRIME 27 Aug 11:44:55 11:48:43 35° 102° (ESE) 11:52:12 437.505
Oscar 11 27 Aug 11:46:37 11:47:38 11° 298° (WNW) 11:48:41 145.826/435.025
PCSat 27 Aug 11:52:16 11:57:26 47° 113° (ESE) 12:02:37 145.827
ESTCUBE 1 27 Aug 11:59:08 12:03:24 39° 98° (E) 12:07:39 437.505/2401.250
Cosmos 2499 27 Aug 12:08:04 12:15:50 48° 90° (E) 12:23:03 435.465 / 435.565
AISAT 27 Aug 12:09:44 12:13:35 28° 96° (E) 12:17:24 437.250
50 SAT 27 Aug 12:12:45 12:15:51 26° 96° (E) 12:18:57 437.505
BUGSAT 1 27 Aug 12:15:05 12:19:19 74° 76° (ENE) 12:23:35 437.445
QB50P1 27 Aug 12:15:33 12:19:34 40° 262° (W) 12:23:37 145.935-145.965
CUSAT 1 27 Aug 12:18:45 12:23:32 21° 272° (W) 12:28:52 437.405
JAS-2 27 Aug 12:19:52 12:25:03 84° 74° (ENE) 12:30:34 435.910
BEESAT 2 27 Aug 12:20:32 12:22:06 12° 320° (NW) 12:23:39 435.950
UKube-1 27 Aug 12:21:51 12:24:53 18° 94° (E) 12:27:53 .
POPSAT HIP 1 27 Aug 12:25:46 12:29:35 31° 263° (W) 12:33:26 437.405
ISS 27 Aug 12:35:57 12:37:25 12° 0° (N) 12:38:52 145.825
GONETS M04 27 Aug 12:38:46 12:47:31 89° 273° (W) 12:56:24
Gurwin Techsat 1B 27 Aug 12:44:23 12:47:16 15° 60° (ENE) 12:50:10 435.225
AIST 2 27 Aug 12:47:08 12:51:13 77° 120° (ESE) 12:55:21 435.215
DUCHIFAT 1 27 Aug 12:55:11 12:58:02 17° 267° (W) 13:00:53 145.980
VELOX 1 27 Aug 12:56:40 13:01:10 87° 100° (E) 13:05:37 145.980
QB50P2 27 Aug 12:57:58 13:00:11 14° 269° (W) 13:02:24 145.880/145.840
CUBEBUG 1 27 Aug 12:59:59 13:04:24 68° 286° (WNW) 13:08:47 437.445
POLYITAN 1 27 Aug 13:00:33 13:02:42 14° 269° (W) 13:04:53 437.675
NANOSAT C BR1 27 Aug 13:10:26 13:11:49 11° 270° (W) 13:13:12 145.865
DANDE 27 Aug 13:11:42 13:15:04 16° 270° (W) 13:18:52 436.750
Oscar 19 27 Aug 13:14:06 13:19:09 57° 72° (ENE) 13:24:14 437.125/150
AUBIESAT-1 27 Aug 13:14:18 13:17:41 25° 298° (WNW) 13:20:51 437.475
AO-7 27 Aug 13:15:04 13:17:59 12° 43° (NE) 13:20:53 29.400- 29.500
DX 1 27 Aug 13:15:28 13:19:54 86° 276° (W) 13:24:15 434.975-435.025
SPROUT 27 Aug 13:19:34 13:23:53 82° 104° (ESE) 13:28:08 437.525
M-CUBED/EXP-1 PRIME 27 Aug 13:19:59 13:22:56 19° 300° (WNW) 13:25:45 437.505
RS-15 27 Aug 13:26:17 13:34:23 21° 262° (W) 13:42:24 29.354- 29.394
PCSat 27 Aug 13:36:30 13:41:02 27° 311° (NW) 13:45:36 145.827
ESTCUBE 1 27 Aug 13:36:36 13:39:56 20° 294° (WNW) 13:43:15 437.505/2401.250
TISAT 1 27 Aug 13:40:33 13:44:11 28° 96° (E) 13:47:48 437.305
O/OREOS (USA 219) 27 Aug 13:43:46 13:47:46 33° 105° (ESE) 13:51:50 437.305
AO-85 27 Aug 13:43:59 13:47:27 23° 45° (NE) 13:50:43 145.980
AISAT 27 Aug 13:46:12 13:49:58 27° 292° (WNW) 13:53:41 437.250
50 SAT 27 Aug 13:46:39 13:49:16 19° 292° (WNW) 13:51:53 437.505
UKube-1 27 Aug 13:57:01 14:01:03 38° 289° (WNW) 14:05:03 .
Cosmos 2499 27 Aug 14:01:52 14:09:04 34° 287° (WNW) 14:15:50 435.465 / 435.565
ISS 27 Aug 14:12:17 14:14:51 20° 20° (NNE) 14:17:24 145.825
Gurwin Techsat 1B 27 Aug 14:21:15 14:26:34 75° 257° (WSW) 14:31:54 435.225
ITAMSAT 1 27 Aug 14:27:45 14:32:32 39° 69° (ENE) 14:37:20 435.822/435.867
AIST 2 27 Aug 14:28:07 14:30:13 14° 319° (NW) 14:32:20 435.215
SWISSCUBE 27 Aug 14:37:44 14:41:41 25° 95° (E) 14:45:37 437.505
GONETS M04 27 Aug 14:39:55 14:45:40 19° 298° (WNW) 14:51:29
BEESAT 27 Aug 14:54:38 14:58:58 34° 97° (E) 15:03:16 436.000
Oscar 19 27 Aug 14:55:31 14:58:49 17° 268° (W) 15:02:08 437.125/150
AO-7 27 Aug 15:00:51 15:08:53 54° 64° (ENE) 15:16:54 29.400- 29.500
TISAT 1 27 Aug 15:16:19 15:19:42 24° 292° (WNW) 15:23:04 437.305
